Weather History for Laramie, WY

Change the Weather History Date:

Friday, November 9, 2012

  Actual Average Record
Temperature  
Mean Temperature 46 °F 32 °F  
Max Temperature 59 °F 45 °F 67 °F (1978)
Min Temperature 32 °F 20 °F -22 °F (1950)
Degree Days  
Heating Degree Days 19 33  
Month to date heating degree days 201 277  
Since 1 July heating degree days 1266 1520  
Cooling Degree Days 0 0  
Month to date cooling degree days 0 0  
Year to date cooling degree days 211 67  
Moisture  
Dew Point 23 °F    
Average Humidity 41    
Maximum Humidity 59    
Minimum Humidity 23    
Precipitation  
Precipitation 0.00 in 0.02 in 0.35 in (2010)
Month to date precipitation 0.00 0.19  
Year to date precipitation 5.90 10.25  
Sea Level Pressure  
Sea Level Pressure 29.50 in    
Wind  
Wind Speed 18 mph (SSW)    
Max Wind Speed 41 mph    
Max Gust Speed 48 mph    
Visibility 10 miles    
Events      
T = Trace of Precipitation, MM = Missing Value Source: NWS Daily Summary

Daily Weather History Graph

Daily Weather History Graph

Search for Another Location

Airport:

Trip Planner

Search our weather history database for the weather conditions in past years. The results will help you decide how hot, cold, wet, or windy it might be!

Date:

Astronomy

Nov. 09, 2012 Rise Set
Actual Time 6:44 AM MST 4:48 PM MST
Civil Twilight 6:15 AM MST 5:17 PM MST
Nautical Twilight 5:41 AM MST 5:50 PM MST
Astronomical Twilight 5:09 AM MST 6:23 PM MST
Moon 1:43 AM MST (11/9) 2:05 PM MST (11/9)
Length of Visible Light 11h 02m
Length of Day
10h 03m
Waning Crescent, 22% of the Moon is Illuminated
Nov 9
Waning Crescent
Nov 13
New
Nov 20
First Quarter
Nov 28
Full
Dec 6
Last Quarter

Hourly Weather History & Observations

Time (MST) Temp. Windchill Dew Point Humidity Pressure Visibility Wind Dir Wind Speed Gust Speed Precip Events Conditions
12:53 AM 37.9 °F 29.6 °F 19.0 °F 47% 29.59 in 10.0 mi SW 13.8 mph - N/A   Clear
1:53 AM 37.0 °F 33.3 °F 17.1 °F 44% 29.61 in 10.0 mi ESE 4.6 mph - N/A   Clear
2:53 AM 42.1 °F 39.2 °F 16.0 °F 35% 29.59 in 10.0 mi South 4.6 mph - N/A   Clear
3:53 AM 44.1 °F 39.0 °F 19.0 °F 37% 29.59 in 10.0 mi East 9.2 mph - N/A   Clear
5:34 AM 46.4 °F 39.0 °F 23.0 °F 40% 29.73 in 10.0 mi SW 19.6 mph 32.2 mph N/A   Clear
5:53 AM 44.1 °F 38.1 °F 23.0 °F 43% 29.60 in 10.0 mi SW 11.5 mph - N/A   Clear
6:53 AM 41.0 °F 35.2 °F 24.1 °F 51% 29.61 in 10.0 mi SW 9.2 mph - N/A   Clear
7:53 AM 46.9 °F - 26.1 °F 44% 29.60 in 10.0 mi South 10.4 mph - N/A   Clear
8:40 AM 51.8 °F - 26.6 °F 38% 29.72 in 10.0 mi SSW 18.4 mph 27.6 mph N/A   Clear
8:53 AM 53.1 °F - 27.0 °F 37% 29.54 in 10.0 mi SSW 25.3 mph 33.4 mph N/A   Clear
9:53 AM 55.0 °F - 27.0 °F 34% 29.53 in 10.0 mi SSW 29.9 mph 36.8 mph N/A   Clear
10:53 AM 55.9 °F - 25.0 °F 30% 29.46 in 10.0 mi SW 39.1 mph 47.2 mph N/A   Clear
11:53 AM 53.1 °F - 24.1 °F 32% 29.51 in 10.0 mi SSW 21.9 mph 34.5 mph N/A   Partly Cloudy
12:53 PM 59.0 °F - 23.0 °F 25% 29.42 in 10.0 mi SSW 28.8 mph 39.1 mph N/A   Mostly Cloudy
1:53 PM 57.9 °F - 21.9 °F 25% 29.43 in 10.0 mi SW 31.1 mph 41.4 mph N/A   Clear
2:53 PM 57.9 °F - 19.9 °F 23% 29.38 in 10.0 mi SW 26.5 mph 38.0 mph N/A   Clear
3:53 PM 54.0 °F - 19.0 °F 25% 29.39 in 10.0 mi SSW 25.3 mph - N/A   Clear
4:53 PM 50.0 °F - 19.9 °F 31% 29.40 in 10.0 mi SW 16.1 mph - N/A   Clear
5:53 PM 42.1 °F 36.6 °F 26.1 °F 53% 29.46 in 10.0 mi South 9.2 mph - N/A   Clear
6:53 PM 37.0 °F 30.4 °F 25.0 °F 62% 29.50 in 10.0 mi South 9.2 mph - N/A   Clear
7:53 PM 37.9 °F 30.9 °F 24.1 °F 57% 29.44 in 10.0 mi South 10.4 mph - N/A   Clear
8:53 PM 42.1 °F 35.7 °F 24.1 °F 49% 29.38 in 10.0 mi South 11.5 mph 18.4 mph N/A   Clear
9:53 PM 45.0 °F 36.4 °F 24.1 °F 44% 29.33 in 10.0 mi SW 23.0 mph - N/A   Clear
10:53 PM 44.1 °F 34.4 °F 24.1 °F 45% 29.31 in 10.0 mi SW 27.6 mph 38.0 mph N/A   Clear
11:53 PM 43.0 °F 33.5 °F 24.1 °F 47% 29.34 in 10.0 mi SW 24.2 mph - N/A   Clear